sat.trackr.live / text

‹ back to catalog

FEMTO-1

NORAD 68419 · 2026-067D

PAYLOAD ACTIVE UNKNOWN

§ Identity

Operator
Country
BUL
Launch date
2026-03-30
Launch site
AFWTR
Launch vehicle
Mass (kg)
RCS (m²)

External: N2YO · Heavens-Above · Gunter

§ Orbital elements

Epoch: 2026-05-24T20:25:32.043648Z

Period
94.82 min
Inclination
97.4528°
Eccentricity
0.0002295
Mean motion
15.18744408 rev/d
Perigee alt
508.1 km
Apogee alt
511.2 km
Semi-major
6,887.8 km
B*
1.2765e-4
RAAN
103.7073°
Arg perigee
42.5378°
Mean anomaly
317.6033°
Rev number
840

§ Raw data

FEMTO-11 68419U 26067D   26144.85106532  .00002583  00000+0  12765-3 0  99972 68419  97.4528 103.7073 0002295  42.5378 317.6033 15.18744408  8400

JSON: /api/v1/satellites/68419 · /tle

For live sub-satellite position, see the globe view (requires WebGL).

§ Visibility from observer

Set your observer location to see the next 7 days of passes ≥ 10°. The values pass through the URL so the page stays shareable.

No JS? Fill the form by hand. The geolocation button needs JavaScript.

§ Radio — SatNOGS DB

ModeDescriptionDownlinkUplink
GMSK UHF 9k6 Telemetry 401.355 MHz

1 transmitter · refreshed weekly from db.satnogs.org